Location: Shenandoah County Park
(38.9356°N, 78.4524°W)
Time: 19:53:21
(UTC-05:00)

Vanguard 1 - Visible Passes

Search period start: 03 December 2023 00:00
Search period end: 13 December 2023 00:00
Orbit: 651 x 3828 km, 34.3° (Epoch: 01 December)

Date Brightness Start Highest point End Pass type
(mag) Time Alt. Az. Time Alt. Az. Time Alt. Az.
03 Dec 14.2 00:43:42 10° W 00:43:52 10° W 00:43:52 10° W visible
03 Dec 12.7 17:52:52 10° SW 18:07:34 59° SSE 18:25:02 20° E visible
03 Dec 12.6 20:14:01 10° WSW 20:33:24 78° S 20:37:41 67° ESE visible
03 Dec 13.3 22:38:09 10° W 22:50:20 43° W 22:50:20 43° W visible
04 Dec14.001:43:53SSE01:43:53SSE01:02:59WNWvisible
04 Dec 12.7 18:13:02 10° WSW 18:28:11 66° SSE 18:44:09 25° E visible
04 Dec 12.6 20:34:45 10° W 20:54:33 78° S 20:56:48 74° SE visible
04 Dec 13.5 22:59:09 10° W 23:09:27 36° W 23:09:27 36° W visible
05 Dec14.002:03:06SSE02:03:06SSE01:22:06WNWvisible
05 Dec 12.6 18:33:21 10° WSW 18:48:58 71° SSE 19:03:17 30° E visible
05 Dec 12.6 20:55:31 10° W 21:15:41 76° S 21:15:56 76° S visible
05 Dec 13.6 23:20:15 10° W 23:28:35 29° W 23:28:35 29° W visible
06 Dec 12.6 18:53:48 10° WSW 19:09:53 75° S 19:22:25 36° E visible
06 Dec 12.7 21:16:19 10° W 21:35:05 71° SW 21:35:05 71° SW visible
06 Dec 13.8 23:41:28 10° W 23:47:44 23° W 23:47:44 23° W visible
07 Dec 12.6 16:54:08 10° SW 17:06:12 57° SSE 17:26:39 10° E visible
07 Dec 12.6 19:14:21 10° WSW 19:30:54 77° S 19:41:36 43° ESE visible
07 Dec 12.9 21:37:09 10° W 21:54:15 63° SW 21:54:15 63° SW visible
08 Dec 14.0 00:02:53 10° W 00:06:55 18° W 00:06:55 18° W visible
08 Dec 12.5 17:14:14 10° SW 17:26:42 64° SSE 17:47:58 10° E visible
08 Dec 12.6 19:34:57 10° W 19:51:57 77° S 20:00:48 49° ESE visible
08 Dec 13.0 21:58:02 10° W 22:13:28 54° WSW 22:13:28 54° WSW visible
09 Dec 14.1 00:24:41 10° W 00:26:08 12° W 00:26:08 12° W visible
09 Dec 12.5 17:34:29 10° WSW 17:47:22 70° SSE 18:07:24 14° E visible
09 Dec 12.6 19:55:36 10° W 20:13:00 75° S 20:20:04 55° ESE visible
09 Dec 13.2 22:18:59 10° W 22:32:44 46° WSW 22:32:44 46° WSW visible
10 Dec 12.5 17:54:52 10° WSW 18:08:10 74° S 18:26:43 18° E visible
10 Dec 12.7 20:16:16 10° W 20:34:01 71° SSW 20:39:23 60° SE visible
10 Dec 13.4 22:40:04 10° W 22:52:04 38° WSW 22:52:04 38° WSW visible
11 Dec 12.5 18:15:19 10° WSW 18:29:02 76° S 18:46:06 22° E visible
11 Dec 12.7 20:36:59 10° W 20:54:58 66° SSW 20:58:47 61° SSE visible
11 Dec 13.6 23:01:22 10° W 23:11:28 30° WSW 23:11:28 30° WSW visible
12 Dec 12.5 18:35:49 10° W 18:49:58 76° S 19:05:34 26° ESE visible
12 Dec 12.8 20:57:44 10° W 21:15:51 60° SSW 21:18:16 58° S visible
12 Dec 13.8 23:23:01 10° W 23:30:58 24° WSW 23:30:58 24° WSW visible
